Location: Caltech
(34.1382°N, 118.1253°W)
Time: 08:39:49
(UTC-07:00)

Iridium 65 - Visible Passes

Search period start: 21 August 2017 00:00
Search period end: 31 August 2017 00:00
Orbit: 776 x 779 km, 86.4° (Epoch: 21 August)

Date Brightness Start Highest point End Pass type
(mag) Time Alt. Az. Time Alt. Az. Time Alt. Az.
21 Aug 6.8 03:06:38 10° NNE 03:10:58 36° ENE 03:10:58 36° ENE visible
21 Aug 6.9 04:48:04 10° NW 04:51:24 20° WNW 04:51:24 20° WNW visible
22 Aug 7.8 02:34:02 10° NE 02:37:01 19° ENE 02:37:01 19° ENE visible
22 Aug 6.3 04:13:43 10° NNW 04:17:27 35° WNW 04:17:27 35° WNW visible
23 Aug 6.2 03:39:54 10° N 03:43:33 46° NNW 03:43:33 46° NNW visible
24 Aug 6.9 03:06:29 10° N 03:09:40 35° NNE 03:09:40 35° NNE visible
24 Aug 7.6 04:49:16 10° NW 04:50:06 12° WNW 04:50:06 12° WNW visible
25 Aug 7.7 02:33:29 10° NNE 02:35:48 21° NE 02:35:48 21° NE visible
25 Aug 7.2 04:14:14 10° NNW 04:16:15 19° NW 04:16:15 19° NW visible
26 Aug 8.4 02:01:19 10° NE 02:01:59 12° NE 02:01:59 12° NE visible
26 Aug 7.1 03:40:08 10° NNW 03:42:25 25° NNW 03:42:25 25° NNW visible
27 Aug 7.4 03:06:29 10° N 03:08:36 25° N 03:08:36 25° N visible
28 Aug 7.9 02:33:13 10° NNE 02:34:49 19° NNE 02:34:49 19° NNE visible
28 Aug 7.8 04:15:03 10° NW 04:15:16 11° NW 04:15:16 11° NW visible
29 Aug 8.4 02:00:28 10° NNE 02:01:02 12° NE 02:01:02 12° NE visible
29 Aug 7.7 03:40:32 10° NNW 03:41:29 15° NNW 03:41:29 15° NNW visible
30 Aug 7.8 03:06:37 10° N 03:07:43 17° N 03:07:43 17° N visible
